Northport, AL

10:04 AM CST on December 06, 2016 (GMT -0600)
Tuscaloosa Municipal

Weather History for KTCL - June, 2013

Change the Weather History Date:

Monday, June 10, 2013

  Actual Average Record
Temperature  
Mean Temperature 80 °F 77 °F  
Max Temperature 89 °F 89 °F 100 °F (1953)
Min Temperature 70 °F 66 °F 53 °F (1980)
Cooling Degree Days 14    
Growing Degree Days 29 (Base 50)    
Moisture  
Dew Point 71 °F    
Average Humidity 73    
Maximum Humidity 94    
Minimum Humidity 52    
Precipitation  
Precipitation 0.76 in 0.15 in 1.59 in (2005)
Month to date precipitation 4.25 1.50  
Year to date precipitation 26.21 24.90  
Sea Level Pressure  
Sea Level Pressure 29.98 in    
Wind  
Wind Speed 6 mph (SSW)    
Max Wind Speed 21 mph    
Max Gust Speed 26 mph    
Visibility 8 miles    
Events Fog , Rain , Thunderstorm    
T = Trace of Precipitation, MM = Missing Value Source: NWS Daily Summary

Daily Weather History Graph

Daily Weather History Graph

Search for Another Location

Airport or City:

Trip Planner

Search our weather history database for the weather conditions in past years. The results will help you decide how hot, cold, wet, or windy it might be!

Date:

Astronomy

Jun. 10, 2013 Rise Set
Actual Time 5:40 AM CDT 7:59 PM CDT
Civil Twilight 5:12 AM CDT 8:28 PM CDT
Nautical Twilight 4:36 AM CDT 9:03 PM CDT
Astronomical Twilight 3:58 AM CDT 9:41 PM CDT
Moon 7:24 AM CDT (6/10) 9:31 PM CDT (6/10)
Length of Visible Light 15h 16m
Length of Day
14h 18m
Waxing Crescent, 4% of the Moon is Illuminated
Jun 10
Waxing Crescent
Jun 16
First Quarter
Jun 23
Full
Jun 29
Last Quarter
Jul 8
New

Hourly Weather History & Observations

Time (CDT) Temp. Heat Index Dew Point Humidity Pressure Visibility Wind Dir Wind Speed Gust Speed Precip Events Conditions
12:40 AM 73.4 °F - 69.8 °F 88% 29.97 in 10.0 mi South 6.9 mph - N/A   Overcast
12:49 AM 73.4 °F - 69.8 °F 88% 29.97 in 10.0 mi South 8.1 mph - N/A   Overcast
12:53 AM 73.0 °F - 70.0 °F 90% 29.96 in 10.0 mi South 6.9 mph - N/A   Overcast
1:53 AM 73.0 °F - 70.0 °F 90% 29.95 in 10.0 mi South 5.8 mph - N/A Thunderstorm Overcast
2:13 AM 73.4 °F - 69.8 °F 88% 30.01 in 1.5 mi West 18.4 mph 26.5 mph 0.21 in Rain , Thunderstorm Thunderstorms and Rain
2:22 AM 69.8 °F - 68.0 °F 94% 29.98 in 0.5 mi NW 6.9 mph 24.2 mph 0.58 in Fog , Rain , Thunderstorm Heavy Thunderstorms and Rain
2:30 AM 69.8 °F - 68.0 °F 94% 29.97 in 2.0 mi WNW 4.6 mph - 0.60 in Rain , Thunderstorm Thunderstorms and Rain
2:38 AM 69.8 °F - 66.2 °F 88% 29.96 in 8.0 mi Calm Calm - 0.60 in Rain , Thunderstorm Light Rain
2:53 AM 70.0 °F - 68.0 °F 93% 29.95 in 9.0 mi South 3.5 mph - 0.60 in Rain , Thunderstorm Light Rain
3:02 AM 69.8 °F - 68.0 °F 94% 29.95 in 10.0 mi Calm Calm - 0.00 in Rain Light Rain
3:26 AM 71.6 °F - 68.0 °F 88% 29.96 in 10.0 mi SSW 3.5 mph - 0.00 in   Mostly Cloudy
3:39 AM 71.6 °F - 69.8 °F 94% 29.96 in 10.0 mi South 3.5 mph - 0.00 in   Overcast
3:53 AM 72.0 °F - 70.0 °F 93% 29.95 in 10.0 mi South 4.6 mph - 0.00 in   Overcast
4:53 AM 73.0 °F - 71.1 °F 93% 29.96 in 6.0 mi South 6.9 mph - 0.03 in Rain Light Rain
5:49 AM 73.4 °F - 71.6 °F 94% 29.98 in 2.5 mi South 6.9 mph - 0.06 in Rain Light Rain
5:53 AM 73.0 °F - 71.1 °F 93% 29.97 in 5.0 mi South 9.2 mph - 0.06 in Rain Light Rain
6:04 AM 73.4 °F - 71.6 °F 94% 29.98 in 7.0 mi South 6.9 mph - 0.00 in   Mostly Cloudy
6:06 AM 73.4 °F - 71.6 °F 94% 29.99 in 7.0 mi SSW 5.8 mph - 0.00 in   Mostly Cloudy
6:14 AM 73.4 °F - 71.6 °F 94% 29.99 in 7.0 mi SSW 6.9 mph - 0.00 in   Mostly Cloudy
6:50 AM 73.4 °F - 71.6 °F 94% 29.99 in 7.0 mi South 5.8 mph - 0.00 in   Overcast
6:53 AM 73.9 °F - 72.0 °F 93% 29.99 in 7.0 mi South 5.8 mph - 0.00 in   Overcast
7:04 AM 73.4 °F - 71.6 °F 94% 29.99 in 7.0 mi SSW 4.6 mph - N/A   Overcast
7:14 AM 73.4 °F - 71.6 °F 94% 29.99 in 7.0 mi South 5.8 mph - N/A   Overcast
7:47 AM 73.4 °F - 71.6 °F 94% 29.99 in 1.8 mi South 5.8 mph - 0.06 in Rain Rain
7:53 AM 73.9 °F - 72.0 °F 93% 29.99 in 1.2 mi Calm Calm - 0.07 in Rain Light Rain
7:58 AM 73.4 °F - 71.6 °F 94% 30.00 in 4.0 mi Calm Calm - 0.00 in Rain Light Rain
8:02 AM 75.2 °F - 71.6 °F 89% 29.99 in 8.0 mi Calm Calm - 0.00 in   Overcast
8:12 AM 75.2 °F - 73.4 °F 94% 30.00 in 8.0 mi South 3.5 mph - 0.00 in   Mostly Cloudy
8:24 AM 75.2 °F - 73.4 °F 94% 30.00 in 9.0 mi Calm Calm - 0.00 in   Scattered Clouds
8:50 AM 77.0 °F - 71.6 °F 83% 30.00 in 10.0 mi SW 8.1 mph - 0.00 in   Mostly Cloudy
8:53 AM 77.0 °F - 72.0 °F 84% 29.99 in 10.0 mi SW 5.8 mph - 0.00 in   Mostly Cloudy
9:24 AM 78.8 °F - 71.6 °F 78% 30.00 in 10.0 mi SW 5.8 mph - N/A   Mostly Cloudy
9:53 AM 80.1 °F 83.8 °F 72.0 °F 76% 29.99 in 10.0 mi SSW 6.9 mph - N/A   Mostly Cloudy
10:34 AM 82.4 °F 88.2 °F 73.4 °F 74% 30.01 in 10.0 mi SSW 5.8 mph - N/A   Mostly Cloudy
10:53 AM 82.0 °F 86.7 °F 72.0 °F 71% 30.01 in 10.0 mi Calm Calm - N/A   Partly Cloudy
11:53 AM 84.9 °F 90.7 °F 72.0 °F 65% 30.00 in 10.0 mi SSW 8.1 mph - N/A   Partly Cloudy
12:53 PM 86.0 °F 91.5 °F 71.1 °F 61% 29.99 in 10.0 mi SW 6.9 mph - N/A   Partly Cloudy
1:53 PM 86.0 °F 90.1 °F 69.1 °F 57% 29.98 in 10.0 mi SW 8.1 mph - N/A   Mostly Cloudy
2:53 PM 87.1 °F 91.3 °F 69.1 °F 55% 29.97 in 10.0 mi SSW 9.2 mph - N/A   Scattered Clouds
3:53 PM 88.0 °F 92.1 °F 69.1 °F 53% 29.96 in 10.0 mi SW 6.9 mph - N/A   Partly Cloudy
4:53 PM 89.1 °F 93.7 °F 69.1 °F 52% 29.94 in 10.0 mi SSW 11.5 mph - N/A   Clear
5:53 PM 88.0 °F 92.1 °F 69.1 °F 53% 29.94 in 10.0 mi SSW 9.2 mph - N/A   Clear
6:53 PM 86.0 °F 90.1 °F 69.1 °F 57% 29.94 in 10.0 mi SSW 4.6 mph - N/A   Clear
7:53 PM 82.0 °F 86.7 °F 72.0 °F 71% 29.95 in 10.0 mi Calm Calm - N/A   Clear
8:53 PM 77.0 °F - 72.0 °F 84% 29.96 in 10.0 mi SSW 3.5 mph - N/A   Clear
9:53 PM 78.1 °F - 73.0 °F 84% 29.98 in 10.0 mi SSW 4.6 mph - N/A   Clear
10:53 PM 77.0 °F - 73.0 °F 88% 29.99 in 10.0 mi SSW 5.8 mph - N/A   Clear
11:53 PM 75.9 °F - 73.0 °F 91% 30.00 in 10.0 mi SSW 4.6 mph - N/A   Clear